Regional Weather Roundup
Issued by NWS Kansas City/Pleasant Hill, MO

Home | Current Version | Previous Version | Graphics & Text | Print | Product List | Glossary Off
Versions: 1 2 3 4 5 6 7 8 9 10 11 12 13 14 15 16 17 18 19 20 21 22 23 24 25 26

000
ASUS43 KEAX 270210
RWREAX

WEATHER ROUNDUP FOR EASTERN KANSAS AND NORTHWEST MISSOURI
NATIONAL WEATHER SERVICE KANSAS CITY/PLEASANT HILL MO
900 PM CDT WED JUL 26 2017

KSZ040-057-103>105-MOZ028-029-037-043-270300-
...KANSAS CITY METROPOLITAN AREA...

CITY           SKY/WX    TMP DP  RH WIND       PRES   REMARKS
K.C. INTL      TSTM      77  75  93 SE6       29.97R FOG
K.C. DOWNTOWN  CLOUDY    77  77 100 NE13G18   29.92R THUNDER FOG
LEES SUMMIT    LGT RAIN  77  77 100 E6        29.95F
OLATHE - IXD   CLOUDY    78  76  93 E5        29.94R
OLATHE - OJC   CLOUDY    76  76 100 E3        29.94S
LAWRENCE       LGT RAIN  76  75  97 N6        29.93R

$$

MOZ001>008-011>017-020>025-030>033-038>040-044>046-053-054-270300-
...NORTHERN AND CENTRAL MISSOURI...

CITY           SKY/WX    TMP DP  RH WIND       PRES   REMARKS
ST. JOSEPH     CLOUDY    79  77  94 S7        29.95S
MOSBY          CLOUDY    77  75  94 CALM      29.95S
WHITEMAN AFB   LGT RAIN  80  80 100 N10       29.95S
CLINTON        CLOUDY    82  81  94 NE6       29.95S HX  95
SEDALIA        MOCLDY    82  81  96 N5        29.97F HX  95
WARSAW         NOT AVBL
CHILLICOTHE      N/A     79  79 100 CALM      29.96S
KIRKSVILLE     CLOUDY    77  73  87 NE3       29.97F

$$

MOZ041-047>049-056>058-063>065-088>090-097-270300-
...EASTERN AND SOUTHERN MISSOURI...

CITY           SKY/WX    TMP DP  RH WIND       PRES   REMARKS
ST. LOUIS INTL CLOUDY    87  71  58 SE8       29.98R HX  93
SPIRIT OF STL  CLOUDY    86  73  65 S7        29.95R HX  93
COLUMBIA       MOCLDY    84  78  82 N5        29.96F HX  95
JEFFERSON CITY CLOUDY    85  78  80 CALM      29.94F HX  96
ROLLA          MOCLDY    85  72  65 S5        30.00S HX  91
OSAGE BEACH    CLOUDY    86  74  67 CALM      29.97F HX  94
SPRINGFIELD    PTCLDY    85  72  65 S9        29.99F HX  91
BRANSON        MOCLDY    82  70  65 CALM      30.04R
JOPLIN         PTCLDY    87  74  64 S9        29.95F HX  95
WEST PLAINS    PTCLDY    85  71  63 S5        30.04S HX  90

$$

IAZ060-094-KSZ022-034>040-054-083-096-NEZ052-066-093-270300-
...KANSAS...SOUTHEAST NEBRASKA AND IOWA...

CITY           SKY/WX    TMP DP  RH WIND       PRES   REMARKS
TOPEKA         CLOUDY    76  76 100 N6        29.95R
MANHATTAN      CLOUDY    78  75  90 NE10      29.95R
EMPORIA        CLOUDY    76  73  91 E6        29.92S
CHANUTE        CLOUDY    87  72  60 S8        29.92F HX  93
WICHITA        CLOUDY    86  73  65 SE8       29.88F HX  93
OMAHA          MOCLDY    75  72  90 N5        29.98S
LINCOLN        CLEAR     74  72  93 N7        29.99S
FALLS CITY     LGT RAIN  77  76  96 CALM      29.95S
LAMONI         CLOUDY    77  74  90 CALM      29.97S
DES MOINES     CLOUDY    76  74  93 N3        29.96F

$$





USA.gov is the U.S. government's official web portal to all federal, state and local government web resources and services.